sat.trackr.live / text

‹ back to catalog

UNKNOWN

NORAD 82402

UNKNOWN UNKNOWN UNKNOWN

§ Identity

Operator
Country
Launch date
Launch site
Launch vehicle
Mass (kg)
RCS (m²)

External: N2YO · Heavens-Above

§ Orbital elements

Epoch: 2026-05-24T02:30:26.911296Z

Period
95.64 min
Inclination
86.6576°
Eccentricity
0.0006276
Mean motion
15.05655230 rev/d
Perigee alt
545.1 km
Apogee alt
553.8 km
Semi-major
6,927.6 km
B*
3.5372e-4
RAAN
85.2847°
Arg perigee
312.9878°
Mean anomaly
47.0831°
Rev number
47,888

§ Raw data

UNKNOWN1 82402U          26144.10447814  .00005138  00000+0  35372-3 0  99912 82402  86.6576  85.2847 0006276 312.9878  47.0831 15.05655230478889

JSON: /api/v1/satellites/82402 · /tle

For live sub-satellite position, see the globe view (requires WebGL).

§ Visibility from observer

Set your observer location to see the next 7 days of passes ≥ 10°. The values pass through the URL so the page stays shareable.

No JS? Fill the form by hand. The geolocation button needs JavaScript.